Location: Poughquag
(41.6090°N, 73.6820°W)
Time: 20:53:36
(UTC-04:00)

STARLINK-1320 - Pass Details

Date: 29 May 2020
Orbit: 378 x 381 km, 53.0° (Epoch: 04 July)

Event Time Altitude Azimuth Distance (km) Brightness Sun altitude
Exits shadow 01:31:10 11° 62° (ENE) 1,326 6.0 -26.1°
Drops below altitude 10° 01:31:21 10° 62° (ENE) 1,398 6.1 -26.0°
Sets 01:33:26 0° 56° (ENE) 2,253 7.4 -26.0°
